(70010) = 1998 XO64

Discovered at Socorro on 1998-12-14 by LINEAR.

Orbit

Orbit type: Main Belt

Note: WebGL enabled browser required.

epoch2024-03-31.0
epoch JD2460400.5
perihelion date2020-11-26.36773
perihelion JD2459179.86773
argument of perihelion (°)120.13732
ascending node (°)263.66197
inclination (°)8.60627
eccentricity0.2141028
perihelion distance (AU)2.4851809
Tisserand w.r.t. Jupiter3.2
ΔV w.r.t. Earth (km/sec)10.3
semimajor axis (AU)3.1622213
mean anomaly (°)213.94421
mean daily motion (°/day)0.17527330
aphelion distance (AU)3.839
period (years)5.62
P-vector [x]0.90528631
P-vector [y]0.31974287
P-vector [z]0.27968053
Q-vector [x]-0.39791506
Q-vector [y]0.86877697
Q-vector [z]0.29477139
absolute magnitude14.08
phase slope0.15
uncertainty0
referenceE2024-GH2
observations used1487
oppositions21
arc length (days)9278
first opposition used1998
last opposition used2024
residual rms (arc-secs)0.62
perturbers coarse indicatorM-v
perturbers precise indicator003Ek
first observation date used1998-11-16.0
last observation date used2024-04-11.0
computer nameMPCLINUX
JD of orbit computation2456966.869380
perihelion JD uncertainty (days)8.7287E-05
argument of perihelion uncertainty (°)4.4247E-05
ascending node uncertainty (°)4.1031E-05
inclination uncertainty (°)5.3000E-06
eccentricity uncertainty 5.0114E-08
perihelion distance uncertainty (AU)1.6475E-07
Minimum Orbit Intersection Distances (in AU)
for orbit epoch: 2460400.5, reference: E2024-GH2
Mercury2.15651
Venus1.77599
Earth1.50323
Mars1.06665
Jupiter1.71842
Saturn5.85957
Uranus14.7544
Neptune26.8713

Observations

1514 total observations over interval: 1998 11 16.53557 – 2023 06 10.198669
These data are available for download (format description).

Date (UT) J2000 RA J2000 Dec Magn Location Ref
1998 11 16.53557 04 20 58.39 +26 46 29.1 18.1 V 566 – Haleakala-NEAT/GEODSS MPS 4489
1998 11 16.54602 04 20 57.86 +26 46 26.0 18.1 V 566 – Haleakala-NEAT/GEODSS MPS 4489
1998 11 16.55643 04 20 57.27 +26 46 22.7 18.2 V 566 – Haleakala-NEAT/GEODSS MPS 4489
1998 11 24.19688 04 14 11.99 +26 04 31.5 17.4   704 – Lincoln Laboratory ETS, New Mexico MPS 4489
1998 11 24.24510 04 14 09.32 +26 04 14.2 18.0   704 – Lincoln Laboratory ETS, New Mexico MPS 4489
1998 11 24.29296 04 14 06.61 +26 03 56.4 18.6   704 – Lincoln Laboratory ETS, New Mexico MPS 4489
1998 11 24.34128 04 14 03.86 +26 03 40.8 18.1   704 – Lincoln Laboratory ETS, New Mexico MPS 4489
1998 11 24.38931 04 14 01.17 +26 03 23.2 18.5   704 – Lincoln Laboratory ETS, New Mexico MPS 4489
1998 12 11.28771 03 59 45.82 +24 18 45.0 17.5 R 699 – Lowell Observatory-LONEOS MPS 3618
1998 12 11.31063 03 59 44.76 +24 18 36.4   699 – Lowell Observatory-LONEOS MPS 3618
1998 12 11.33354 03 59 43.72 +24 18 27.4   699 – Lowell Observatory-LONEOS MPS 3618
1998 12 14.12579 03 57 45.92 +24 01 04.4 17.9   704 – Lincoln Laboratory ETS, New Mexico MPS 3444
1998 12 14.14808 03 57 45.02 +24 00 55.9 18.4   704 – Lincoln Laboratory ETS, New Mexico MPS 3444
1998 12 14.16995 03 57 44.07 +24 00 48.1 18.2   704 – Lincoln Laboratory ETS, New Mexico MPS 3444
1998 12 14.19179 03 57 43.15 +24 00 41.5 18.2   704 – Lincoln Laboratory ETS, New Mexico MPS 3444
1998 12 14.21362 03 57 42.08 +24 00 33.7 19.1   704 – Lincoln Laboratory ETS, New Mexico MPS 3444
1998 12 17.18520 03 55 47.76 +23 42 26.3 17.9   704 – Lincoln Laboratory ETS, New Mexico MPS 3444
1998 12 17.20836 03 55 46.89 +23 42 17.3 17.9   704 – Lincoln Laboratory ETS, New Mexico MPS 3444
1998 12 17.23161 03 55 45.93 +23 42 09.4 17.7   704 – Lincoln Laboratory ETS, New Mexico MPS 3444
1998 12 17.25470 03 55 45.12 +23 41 59.9 17.7   704 – Lincoln Laboratory ETS, New Mexico MPS 3444
1998 12 17.27798 03 55 44.23 +23 41 51.4 17.9   704 – Lincoln Laboratory ETS, New Mexico MPS 3444
1999 01 05.15361 03 48 59.79 +22 03 56.9 17.9 R 699 – Lowell Observatory-LONEOS MPS 3618
1999 01 05.17399 03 48 59.62 +22 03 51.0   699 – Lowell Observatory-LONEOS MPS 3618
1999 01 05.19565 03 48 59.50 +22 03 46.2   699 – Lowell Observatory-LONEOS MPS 3618
1999 01 22.16776 03 51 22.65 +21 10 19.3 18.6 R 699 – Lowell Observatory-LONEOS MPS 58709
1999 01 22.19321 03 51 23.23 +21 10 15.4   699 – Lowell Observatory-LONEOS MPS 58709
1999 01 22.21868 03 51 23.82 +21 10 12.0   699 – Lowell Observatory-LONEOS MPS 58709
2000 02 08.32298 10 07 53.13 -00 00 16.6 18.4   704 – Lincoln Laboratory ETS, New Mexico MPS 17506
2000 02 08.33987 10 07 52.35 -00 00 13.8 18.9   704 – Lincoln Laboratory ETS, New Mexico MPS 17506
2000 02 08.35676 10 07 51.60 -00 00 12.3 19.4   704 – Lincoln Laboratory ETS, New Mexico MPS 17506
2000 02 08.39058 10 07 49.95 -00 00 05.5 19.6   704 – Lincoln Laboratory ETS, New Mexico MPS 17506
2000 03 01.24220 09 51 08.57 +01 16 38.6 19.8 R 703 – Catalina Sky Survey MPS 17506
2000 03 01.25811 09 51 07.82 +01 16 44.3 19.1 R 703 – Catalina Sky Survey MPS 17506
2000 03 01.27409 09 51 07.12 +01 16 47.2 19.2 R 703 – Catalina Sky Survey MPS 17506
2000 03 01.28998 09 51 06.40 +01 16 52.6 18.8 R 703 – Catalina Sky Survey MPS 17506
2002 06 06.29309 16 46 55.68 -24 35 22.0 18.7   704 – Lincoln Laboratory ETS, New Mexico MPS 56880
2002 06 06.30655 16 46 55.05 -24 35 19.7 19.2   704 – Lincoln Laboratory ETS, New Mexico MPS 56880
2002 06 06.32010 16 46 54.29 -24 35 17.4 18.6   704 – Lincoln Laboratory ETS, New Mexico MPS 56880
2002 06 06.34722 16 46 52.85 -24 35 12.9 18.9   704 – Lincoln Laboratory ETS, New Mexico MPS 56880
2002 06 08.30461 16 45 13.34 -24 28 49.5 18.5   704 – Lincoln Laboratory ETS, New Mexico MPS 56880
2002 06 08.31853 16 45 12.66 -24 28 47.2 19.1   704 – Lincoln Laboratory ETS, New Mexico MPS 56880
2002 06 08.33244 16 45 11.94 -24 28 44.5 19.2   704 – Lincoln Laboratory ETS, New Mexico MPS 56880
2002 06 08.34634 16 45 11.22 -24 28 40.5 19.0   704 – Lincoln Laboratory ETS, New Mexico MPS 56880
2002 06 08.36026 16 45 10.48 -24 28 37.8 19.1   704 – Lincoln Laboratory ETS, New Mexico MPS 56880
2002 06 17.24468 16 37 50.83 -23 58 33.6 18.2   704 – Lincoln Laboratory ETS, New Mexico MPS 56880
2002 06 17.25845 16 37 50.22 -23 58 30.7 19.0   704 – Lincoln Laboratory ETS, New Mexico MPS 56880
2002 06 17.28602 16 37 48.87 -23 58 25.1 19.1   704 – Lincoln Laboratory ETS, New Mexico MPS 56880
2002 06 17.29981 16 37 48.21 -23 58 23.4 18.9   704 – Lincoln Laboratory ETS, New Mexico MPS 56880
2003 06 29.37282 22 55 01.41 +03 15 56.1 18.8   704 – Lincoln Laboratory ETS, New Mexico MPS 110773
2003 06 29.39306 22 55 01.83 +03 16 04.7 19.2   704 – Lincoln Laboratory ETS, New Mexico MPS 110773
2003 06 29.40307 22 55 02.04 +03 16 09.1 19.2   704 – Lincoln Laboratory ETS, New Mexico MPS 110773
2003 06 29.41314 22 55 02.30 +03 16 13.8 19.4   704 – Lincoln Laboratory ETS, New Mexico MPS 110773
2003 07 30.33382 22 57 05.64 +06 08 54.9 18.5   704 – Lincoln Laboratory ETS, New Mexico MPS 110773
2003 07 30.34542 22 57 05.45 +06 08 57.6 18.9   704 – Lincoln Laboratory ETS, New Mexico MPS 110773
2003 07 30.35713 22 57 05.23 +06 09 00.1 18.9   704 – Lincoln Laboratory ETS, New Mexico MPS 110773
2003 07 30.36857 22 57 04.99 +06 09 02.1 18.8   704 – Lincoln Laboratory ETS, New Mexico MPS 110773
2003 07 30.37993 22 57 04.64 +06 09 05.0 19.0   704 – Lincoln Laboratory ETS, New Mexico MPS 110773
2003 08 10.49329 22 52 35.77 +06 34 19.8 20.1   608 – Haleakala-AMOS MPS 110773
2003 08 10.50425 22 52 35.40 +06 34 19.8 18.6   608 – Haleakala-AMOS MPS 110773
2003 08 10.51463 22 52 35.05 +06 34 20.4 18.7   608 – Haleakala-AMOS MPS 110773
2003 08 25.87859 22 42 46.40 +06 29 20.3 16.8 R 113 – Volkssternwarte Drebach, Schoenbrunn MPS 83180
2003 08 25.88248 22 42 46.24 +06 29 20.0 17.0 R 113 – Volkssternwarte Drebach, Schoenbrunn MPS 83180
2003 08 25.88638 22 42 46.06 +06 29 19.5 17.0 R 113 – Volkssternwarte Drebach, Schoenbrunn MPS 83180
2003 08 26.32239 22 42 26.64 +06 28 31.5 17.5   704 – Lincoln Laboratory ETS, New Mexico MPS 83180
2003 08 26.33508 22 42 26.06 +06 28 30.5 17.9   704 – Lincoln Laboratory ETS, New Mexico MPS 83180
2003 08 26.34740 22 42 25.55 +06 28 27.3 18.1   704 – Lincoln Laboratory ETS, New Mexico MPS 83180
2003 08 26.35978 22 42 25.11 +06 28 26.9 18.5   704 – Lincoln Laboratory ETS, New Mexico MPS 83180
2003 08 26.37238 22 42 24.31 +06 28 26.2 17.7   704 – Lincoln Laboratory ETS, New Mexico MPS 83180
2003 09 03.30204 22 36 24.29 +06 07 29.1 16.7   704 – Lincoln Laboratory ETS, New Mexico MPS 83900
2003 09 03.31403 22 36 23.68 +06 07 26.8 17.1   704 – Lincoln Laboratory ETS, New Mexico MPS 83900
2003 09 03.32610 22 36 23.10 +06 07 24.3 17.1   704 – Lincoln Laboratory ETS, New Mexico MPS 83900
2003 09 03.33818 22 36 22.53 +06 07 21.7 17.5   704 – Lincoln Laboratory ETS, New Mexico MPS 83900
2003 09 18.11874 22 25 40.05 +05 04 35.5 17.0 R 699 – Lowell Observatory-LONEOS MPS 84989
2003 09 18.13548 22 25 39.36 +05 04 30.6   699 – Lowell Observatory-LONEOS MPS 84989
2003 09 18.15222 22 25 38.73 +05 04 25.3   699 – Lowell Observatory-LONEOS MPS 84989
2003 09 18.16873 22 25 38.06 +05 04 20.5   699 – Lowell Observatory-LONEOS MPS 84989
2003 09 19.23828 22 24 56.83 +04 58 59.7 17.3   704 – Lincoln Laboratory ETS, New Mexico MPS 84989
2003 09 19.25063 22 24 56.29 +04 58 55.7 17.9   704 – Lincoln Laboratory ETS, New Mexico MPS 84989
2003 09 19.27620 22 24 55.31 +04 58 48.3 17.7   704 – Lincoln Laboratory ETS, New Mexico MPS 84989
2003 09 19.28870 22 24 54.79 +04 58 44.2 17.9   704 – Lincoln Laboratory ETS, New Mexico MPS 84989
2003 09 20.24615 22 24 19.01 +04 53 54.0 17.2   704 – Lincoln Laboratory ETS, New Mexico MPS 84989
2003 09 20.25897 22 24 18.50 +04 53 48.1 17.3   704 – Lincoln Laboratory ETS, New Mexico MPS 84989
2003 09 20.27102 22 24 18.04 +04 53 46.9 17.3   704 – Lincoln Laboratory ETS, New Mexico MPS 84989
2003 09 20.28307 22 24 17.57 +04 53 42.6 17.5   704 – Lincoln Laboratory ETS, New Mexico MPS 84989
2003 09 28.13234 22 20 02.41 +04 12 53.7 17.8 V 691 – Steward Observatory, Kitt Peak-Spacewatch MPS 86009
2003 09 28.15912 22 20 01.63 +04 12 45.4 17.8 V 691 – Steward Observatory, Kitt Peak-Spacewatch MPS 86009
